Weather History for Asheville, NC

Change the Weather History Date:

Sunday, August 9, 2009

  Actual Average Record
Temperature  
Mean Temperature 75 °F 74 °F  
Max Temperature 87 °F 84 °F 94 °F (2007)
Min Temperature 63 °F 64 °F 49 °F (1989)
Degree Days  
Heating Degree Days 0 0  
Month to date heating degree days 0 0  
Since 1 June heating degree days 0 14  
Since 1 July heating degree days 0 0  
Cooling Degree Days 10 9  
Month to date cooling degree days 70 81  
Year to date cooling degree days 519 591  
Since 1 June cooling degree days 465 533  
Growing Degree Days 25 (Base 50)    
Moisture  
Dew Point 65 °F    
Average Humidity 71    
Maximum Humidity 100    
Minimum Humidity 42    
Precipitation  
Precipitation 0.00 in 0.14 in 1.94 in (2014)
Month to date precipitation 0.92 1.28  
Year to date precipitation 31.27 28.49  
Snow  
Snow 0.00 in 0.00 in 0.00 in ()
Month to date snowfall 0.0 0.0  
Since 1 June snowfall 0.0 0.0  
Since 1 July snowfall 0.0 0.0  
Snow Depth 0.00 in    
Sea Level Pressure  
Sea Level Pressure 30.26 in    
Wind  
Wind Speed 2 mph (NNW)    
Max Wind Speed 10 mph    
Max Gust Speed 14 mph    
Visibility 5 miles    
Events Fog    
T = Trace of Precipitation, MM = Missing Value Source: NWS Daily Summary

Daily Weather History Graph

Daily Weather History Graph

Search for Another Location

Airport:

Trip Planner

Search our weather history database for the weather conditions in past years. The results will help you decide how hot, cold, wet, or windy it might be!

Date:

Astronomy

Aug. 09, 2009 Rise Set
Actual Time 6:45 AM EDT 8:25 PM EDT
Civil Twilight 6:17 AM EDT 8:52 PM EDT
Nautical Twilight 5:44 AM EDT 9:25 PM EDT
Astronomical Twilight 5:09 AM EDT 10:00 PM EDT
Moon 10:03 PM EDT (8/9) 10:05 AM EDT (8/9)
Length of Visible Light 14h 35m
Length of Day
13h 40m
Waning Gibbous, 88% of the Moon is Illuminated
Aug 9
Waning Gibbous
Aug 13
Last Quarter
Aug 20
New
Aug 27
First Quarter
Sep 4
Full

Hourly Weather History & Observations

Time (EDT) Temp. Heat Index Dew Point Humidity Pressure Visibility Wind Dir Wind Speed Gust Speed Precip Events Conditions
12:54 AM 70.0 °F - 69.1 °F 97% 30.23 in 6.0 mi Calm Calm - N/A   Clear
1:54 AM 69.1 °F - 68.0 °F 96% 30.22 in 6.0 mi SE 3.5 mph - N/A   Clear
2:54 AM 68.0 °F - 66.9 °F 96% 30.21 in 6.0 mi Calm Calm - N/A   Clear
3:54 AM 68.0 °F - 66.0 °F 93% 30.22 in 6.0 mi Calm Calm - N/A   Clear
4:28 AM 64.4 °F - 64.4 °F 100% 30.30 in 1.5 mi Calm Calm - N/A   Clear
4:30 AM 64.4 °F - 64.4 °F 100% 30.30 in 0.8 mi SW 3.5 mph - N/A   Mist
4:41 AM 64.4 °F - 64.4 °F 100% 30.30 in 1.5 mi Calm Calm - N/A   Scattered Clouds
4:49 AM 64.4 °F - 64.4 °F 100% 30.30 in 2.0 mi Calm Calm - N/A   Scattered Clouds
4:54 AM 64.9 °F - 64.0 °F 97% 30.23 in 2.5 mi Calm Calm - N/A   Scattered Clouds
5:01 AM 64.4 °F - 64.4 °F 100% 30.30 in 4.0 mi Calm Calm - N/A   Mostly Cloudy
5:04 AM 64.4 °F - 64.4 °F 100% 30.30 in 1.8 mi Calm Calm - N/A   Mostly Cloudy
5:11 AM 64.4 °F - 64.4 °F 100% 30.30 in 0.8 mi Calm Calm - N/A   Mist
5:29 AM 64.4 °F - 64.4 °F 100% 30.30 in 1.0 mi Calm Calm - N/A   Mostly Cloudy
5:36 AM 64.4 °F - 64.4 °F 100% 30.31 in 2.0 mi NNW 3.5 mph - N/A   Mostly Cloudy
5:46 AM 64.4 °F - 64.4 °F 100% 30.31 in 1.2 mi Calm Calm - N/A   Overcast
5:54 AM 64.9 °F - 64.0 °F 97% 30.24 in 0.2 mi Calm Calm - N/A Fog Fog
6:26 AM 64.4 °F - 64.4 °F 100% 30.32 in 0.5 mi Calm Calm - N/A Fog Fog
6:29 AM 64.4 °F - 64.4 °F 100% 30.32 in 0.2 mi Calm Calm - N/A Fog Fog
6:54 AM 64.0 °F - 64.0 °F 100% 30.25 in 0.2 mi Calm Calm - N/A Fog Fog
7:34 AM 64.4 °F - 64.4 °F 100% 30.33 in 1.2 mi NNW 3.5 mph - N/A   Mostly Cloudy
7:37 AM 64.4 °F - 64.4 °F 100% 30.33 in 2.0 mi North 3.5 mph - N/A   Mostly Cloudy
7:54 AM 64.9 °F - 64.9 °F 100% 30.26 in 2.0 mi Calm Calm - N/A   Mostly Cloudy
7:57 AM 66.2 °F - 64.4 °F 94% 30.33 in 0.2 mi NNW 3.5 mph - N/A Fog Fog
8:54 AM 66.9 °F - 66.9 °F 100% 30.28 in 0.8 mi NW 3.5 mph - N/A   Overcast
9:08 AM 66.2 °F - 66.2 °F 100% 30.35 in 1.2 mi Calm Calm - N/A   Overcast
9:13 AM 68.0 °F - 66.2 °F 94% 30.35 in 2.0 mi Calm Calm - N/A   Mostly Cloudy
9:20 AM 69.8 °F - 66.2 °F 88% 30.35 in 4.0 mi NNW 3.5 mph - N/A   Scattered Clouds
9:54 AM 73.9 °F - 66.0 °F 76% 30.27 in 8.0 mi NNW 5.8 mph - N/A   Clear
10:54 AM 80.1 °F 81.9 °F 64.9 °F 60% 30.27 in 10.0 mi North 8.1 mph - N/A   Clear
11:54 AM 82.9 °F 84.4 °F 64.0 °F 53% 30.26 in 10.0 mi North 6.9 mph - N/A   Clear
12:54 PM 84.0 °F 85.4 °F 64.0 °F 51% 30.24 in 10.0 mi Variable 5.8 mph - N/A   Clear
1:54 PM 84.9 °F 85.4 °F 62.1 °F 46% 30.23 in 10.0 mi NNW 4.6 mph - N/A   Clear
2:54 PM 86.0 °F 86.3 °F 62.1 °F 44% 30.21 in 10.0 mi West 3.5 mph - N/A   Scattered Clouds
3:54 PM 84.9 °F 85.4 °F 62.1 °F 46% 30.19 in 10.0 mi NW 3.5 mph - N/A   Mostly Cloudy
4:54 PM 86.0 °F 86.1 °F 61.0 °F 43% 30.17 in 10.0 mi Calm Calm - N/A   Partly Cloudy
5:54 PM 84.9 °F 85.9 °F 63.0 °F 48% 30.16 in 10.0 mi Variable 3.5 mph - N/A   Clear
6:54 PM 84.0 °F 85.8 °F 64.9 °F 53% 30.16 in 10.0 mi Calm Calm - N/A   Clear
7:54 PM 82.0 °F 84.5 °F 66.9 °F 60% 30.17 in 10.0 mi Calm Calm - N/A   Clear
8:54 PM 78.1 °F - 69.1 °F 74% 30.17 in 9.0 mi Calm Calm - N/A   Clear
9:54 PM 75.9 °F - 70.0 °F 82% 30.18 in 9.0 mi Calm Calm - N/A   Partly Cloudy
10:54 PM 73.0 °F - 69.1 °F 87% 30.18 in 8.0 mi Calm Calm - N/A   Clear
11:54 PM 71.1 °F - 69.1 °F 93% 30.17 in 6.0 mi Calm Calm - N/A   Clear